Content
SEND FEEDBACK

Daily
Averages
Monthly
Summary
United States of America

PYGA BEACH, GUAM


Home > North America > United States > Guam
Elevation: 6 meters     Latitude: 13 17N     Longitude: 144 39E

WEATHER
 
SELECT A DAY
Number of Records: 342,166;   Date Range: 1/1/95 - 8/12/14
 
SHARE

PRINT THIS DATA

[ ← Previous Day ]
WEATHER ALMANAC - 27 APRIL, 2013
[ Next Day → ]
[ °F ]   °C
Weather ElementAverageHighLow
Temperature27.4 °C30 °C (10:53 am)25.6 °C (1:55 am)
Dewpoint23.4 °C24.2 °C (11:55 am)22.6 °C (7:55 pm)
Humidity79 %89 % (12:15 am)66 % (2:27 pm)
Barometer1010.5 hPa1020 hPa (1:21 pm)1000 hPa (1:18 pm)
Wind Speed18.7 km/h24.1 km/h (12:41 pm)
Wind Gust33.3 km/h (12:41 pm)
Weather ElementAverage
Visibility16.1 km
Wind DirectionENE (82.7 °)

Weather ElementTotal
Precipitation---
Cooling Degree Days9.5 (Base 18.3)
Growing Degree Days17.8 (Base 10)
Averaged from 71 records on 27 April, 2013
WEATHER CONDITIONS BREAKOUT
WIND DIRECTION BREAKOUT
WEATHER BY HOUR - 27 APRIL, 2013
[ °F ]   °C
Local TimeTemperatureDewpointHumidityBarometerVisibilityWind DirectionWind SpeedGust SpeedPrecipitationEventsConditions
12:15 AM26 °C24 °C89 %1011.2 hPa16.1 kmEast (80°)16.7 km/hMostly Cloudy
12:17 AM26 °C24 °C89 %1011.2 hPa16.1 kmEast (80°)14.8 km/hMostly Cloudy
12:20 AM26 °C24 °C89 %1011.2 hPa16.1 kmEast (90°)16.7 km/hMostly Cloudy
12:27 AM26 °C24 °C89 %1011.2 hPa16.1 kmEast (90°)16.7 km/hMostly Cloudy
12:30 AM26 °C24 °C89 %1011.2 hPa16.1 kmEast (90°)16.7 km/hScattered Clouds
12:55 AM25.7 °C23.6 °C88 %1010.8 hPa16.1 kmEast (90°)14.8 km/hScattered Clouds
1:04 AM26 °C24 °C89 %1010.8 hPa16.1 kmEast (80°)18.5 km/hMostly Cloudy
1:15 AM26 °C23 °C83 %1010.8 hPa16.1 kmEast (90°)18.5 km/hScattered Clouds
1:55 AM25.6 °C23.2 °C86 %1010.5 hPa16.1 kmEast (90°)14.8 km/hPartly Cloudy
2:55 AM25.7 °C23.3 °C87 %1010.2 hPa16.1 kmEast (100°)11.1 km/hPartly Cloudy
3:03 AM26 °C24 °C89 %1010.5 hPa16.1 kmEast (90°)13 km/hMostly Cloudy
3:04 AM26 °C24 °C89 %1010.2 hPa16.1 kmEast (90°)14.8 km/hMostly Cloudy
3:33 AM26 °C24 °C89 %1010.2 hPa16.1 kmEast (100°)18.5 km/hMostly Cloudy
3:40 AM26 °C23 °C83 %1010.2 hPa16.1 kmEast (90°)13 km/hScattered Clouds
3:42 AM26 °C23 °C83 %1010.2 hPa16.1 kmEast (90°)16.7 km/hMostly Cloudy
3:55 AM25.8 °C23.7 °C88 %1010.2 hPa16.1 kmEast (90°)16.7 km/hMostly Cloudy
3:56 AM26 °C24 °C89 %1010.2 hPa16.1 kmEast (90°)18.5 km/hScattered Clouds
4:12 AM26 °C23 °C83 %1010.5 hPa16.1 kmEast (100°)16.7 km/hMostly Cloudy
4:14 AM26 °C23 °C83 %1010.5 hPa16.1 kmEast (90°)18.5 km/hScattered Clouds
4:55 AM25.8 °C23.1 °C85 %1010.8 hPa16.1 kmEast (100°)18.5 km/hScattered Clouds
5:55 AM25.7 °C23.2 °C86 %1011.2 hPa16.1 kmEast (90°)14.8 km/hScattered Clouds
5:57 AM26 °C23 °C83 %1011.2 hPa16.1 kmEast (100°)14.8 km/hMostly Cloudy
6:06 AM26 °C23 °C83 %1011.2 hPa16.1 kmEast (90°)16.7 km/hScattered Clouds
6:55 AM26.4 °C23.6 °C84 %1011.5 hPa16.1 kmEast (90°)14.8 km/hPartly Cloudy
7:55 AM27.4 °C23.5 °C79 %1011.9 hPa16.1 kmEast (80°)18.5 km/hClear
8:55 AM28.6 °C24 °C76 %1011.9 hPa16.1 kmEast (90°)18.5 km/hPartly Cloudy
9:55 AM28.7 °C24 °C76 %1011.9 hPa16.1 kmENE (70°)20.4 km/h31.5 km/hMostly Cloudy
10:43 AM29 °C24 °C74 %1011.5 hPa16.1 kmENE (60°)22.2 km/hScattered Clouds
10:47 AM29 °C24 °C74 %1011.5 hPa16.1 kmENE (70°)22.2 km/hMostly Cloudy
10:53 AM30 °C24 °C70 %1011.5 hPa16.1 kmEast (80°)20.4 km/hScattered Clouds
10:55 AM29.7 °C24 °C71 %1011.5 hPa16.1 kmENE (70°)22.2 km/hScattered Clouds
11:55 AM29.9 °C24.2 °C71 %1011.2 hPa16.1 kmEast (80°)22.2 km/hScattered Clouds
12:41 PM30 °C24 °C70 %1010.5 hPa16.1 kmENE (60°)24.1 km/h33.3 km/hMostly Cloudy
12:55 PM30 °C24 °C70 %1010.5 hPa16.1 kmENE (70°)22.2 km/hMostly Cloudy
1:01 PM30 °C24 °C70 %1011.5 hPa16.1 kmENE (70°)22.2 km/hMostly Cloudy
1:05 PM30 °C24 °C70 %1010.2 hPa16.1 kmENE (70°)24.1 km/hMostly Cloudy
1:08 PM30 °C24 °C70 %1010.2 hPa16.1 kmENE (70°)24.1 km/hMostly Cloudy
1:18 PM30 °C24 °C70 %1000 hPa16.1 kmENE (70°)22.2 km/hScattered Clouds
1:19 PM30 °C24 °C70 %1010.2 hPa16.1 kmENE (70°)20.4 km/hScattered Clouds
1:21 PM30 °C24 °C70 %1020 hPa16.1 kmEast (80°)22.2 km/hScattered Clouds
1:22 PM30 °C24 °C70 %1009.8 hPa16.1 kmEast (80°)20.4 km/hScattered Clouds
1:23 PM30 °C24 °C70 %1009.8 hPa16.1 kmEast (80°)18.5 km/hScattered Clouds
1:55 PM29.7 °C23.9 °C71 %1009.5 hPa16.1 kmENE (70°)20.4 km/hScattered Clouds
2:05 PM30 °C24 °C70 %1009.5 hPa16.1 kmEast (100°)20.4 km/hMostly Cloudy
2:27 PM30 °C23 °C66 %1009.5 hPa16.1 kmEast (80°)24.1 km/hScattered Clouds
2:55 PM29.6 °C23.4 °C69 %1009.1 hPa16.1 kmEast (90°)22.2 km/hClear
3:55 PM29.1 °C22.8 °C69 %1009.1 hPa16.1 kmENE (70°)20.4 km/hPartly Cloudy
4:27 PM28 °C23 °C74 %1009.1 hPa16.1 kmENE (70°)20.4 km/hMostly Cloudy
4:29 PM28 °C23 °C74 %1009.1 hPa16.1 kmENE (60°)20.4 km/hScattered Clouds
4:32 PM28 °C23 °C74 %1009.1 hPa16.1 kmEast (80°)22.2 km/hMostly Cloudy
4:35 PM28 °C23 °C74 %1009.1 hPa16.1 kmEast (80°)18.5 km/hScattered Clouds
4:50 PM28 °C23 °C74 %1009.1 hPa16.1 kmENE (70°)18.5 km/hMostly Cloudy
4:52 PM28 °C23 °C74 %1009.1 hPa16.1 kmENE (70°)20.4 km/hScattered Clouds
4:55 PM27.9 °C22.9 °C74 %1009.1 hPa16.1 kmENE (60°)20.4 km/hScattered Clouds
5:55 PM27 °C22.7 °C77 %1009.8 hPa16.1 kmENE (70°)18.5 km/hPartly Cloudy
6:53 PM27 °C23 °C79 %1010.2 hPa16.1 kmENE (60°)20.4 km/hMostly Cloudy
6:55 PM26.7 °C22.9 °C80 %1010.2 hPa16.1 kmENE (60°)20.4 km/hMostly Cloudy
7:19 PM27 °C23 °C79 %1010.5 hPa16.1 kmEast (80°)20.4 km/hMostly Cloudy
7:55 PM26.2 °C22.6 °C80 %1010.5 hPa16.1 kmEast (80°)16.7 km/hClear
8:55 PM26.2 °C22.8 °C81 %1011.5 hPa16.1 kmEast (80°)20.4 km/hPartly Cloudy
9:04 PM26 °C23 °C83 %1011.5 hPa16.1 kmEast (80°)14.8 km/hMostly Cloudy
9:18 PM27 °C23 °C79 %1011.5 hPa16.1 kmEast (90°)16.7 km/hMostly Cloudy
9:22 PM26 °C23 °C83 %1011.5 hPa16.1 kmEast (100°)16.7 km/hMostly Cloudy
9:25 PM26 °C23 °C83 %1011.5 hPa16.1 kmEast (90°)16.7 km/hMostly Cloudy
9:55 PM26.5 °C22.9 °C80 %1011.9 hPa16.1 kmEast (100°)16.7 km/hPartly Cloudy
10:30 PM26 °C23 °C83 %1012.2 hPa16.1 kmEast (100°)18.5 km/hMostly Cloudy
10:32 PM26 °C23 °C83 %1012.2 hPa16.1 kmEast (100°)20.4 km/hScattered Clouds
10:36 PM26 °C23 °C83 %1012.2 hPa16.1 kmEast (100°)18.5 km/hMostly Cloudy
10:55 PM26.4 °C23.4 °C83 %1012.2 hPa16.1 kmEast (90°)16.7 km/hMostly Cloudy
10:57 PM26 °C23 °C83 %1012.2 hPa16.1 kmEast (90°)16.7 km/hScattered Clouds
11:55 PM26.2 °C23.2 °C83 %1011.9 hPa16.1 kmEast (100°)16.7 km/hScattered Clouds
Hourly data recorded from PGUA, located 0 kilometers away from Pyga Beach, Guam







STORIES FROM OUR PARTNERS